Location: Izdebno
(52.6670°N, 16.2170°E)
Time: 13:30:56
(UTC+02:00)

Vanguard 2 - Pass Details

Date: 01 February 2023
Orbit: 553 x 2927 km, 32.9° (Epoch: 26 March)

Event Time Altitude Azimuth Distance (km) Brightness Sun altitude
Rises 01:22:01 0° 254° (WSW) 6,458 - -51.7°
Reaches altitude 10° 01:26:37 10° 246° (WSW) 5,615 - -51.4°
Maximum altitude 01:41:30 36° 189° (S) 3,952 - -50.2°
Exits shadow 01:52:25 17° 138° (SE) 4,725 11.4 -49.1°
Drops below altitude 10° 01:55:11 10° 131° (SE) 5,162 11.7 -48.9°
Sets 01:59:11 0° 124° (ESE) 5,900 12.1 -48.5°
